Weather History for KAZO - November, 2012

Change the Weather History Date:

Friday, November 9, 2012

  Actual Average Record
Temperature  
Mean Temperature 44 °F 43 °F  
Max Temperature 58 °F 51 °F 73 °F (1999)
Min Temperature 30 °F 36 °F 18 °F (1951)
Degree Days  
Heating Degree Days 21 22  
Month to date heating degree days 249 183  
Since 1 July heating degree days 867 775  
Cooling Degree Days 0 0  
Month to date cooling degree days 0 0  
Year to date cooling degree days 1051 675  
Moisture  
Dew Point 37 °F    
Average Humidity 74    
Maximum Humidity 100    
Minimum Humidity 47    
Precipitation  
Precipitation T in 0.10 in 1.85 in (1966)
Month to date precipitation T 0.99  
Year to date precipitation 25.32 31.73  
Sea Level Pressure  
Sea Level Pressure 30.13 in    
Wind  
Wind Speed 6 mph (SSE)    
Max Wind Speed 16 mph    
Max Gust Speed 20 mph    
Visibility 5 miles    
Events      
T = Trace of Precipitation, MM = Missing Value Source: NWS Daily Summary

Daily Weather History Graph

Daily Weather History Graph

Search for Another Location

Airport or City:

Trip Planner

Search our weather history database for the weather conditions in past years. The results will help you decide how hot, cold, wet, or windy it might be!

Date:

Astronomy

Nov. 09, 2012 Rise Set
Actual Time 7:25 AM EST 5:25 PM EST
Civil Twilight 6:56 AM EST 5:55 PM EST
Nautical Twilight 6:22 AM EST 6:29 PM EST
Astronomical Twilight 5:49 AM EST 7:01 PM EST
Moon 2:18 AM EST (11/9) 2:43 PM EST (11/9)
Length of Visible Light 10h 59m
Length of Day
9h 59m
Waning Crescent, 23% of the Moon is Illuminated
Nov 9
Waning Crescent
Nov 13
New
Nov 20
First Quarter
Nov 28
Full
Dec 6
Last Quarter

Hourly Weather History & Observations

Time (EST) Temp. Windchill Dew Point Humidity Pressure Visibility Wind Dir Wind Speed Gust Speed Precip Events Conditions
12:53 AM 37.0 °F 34.5 °F 33.1 °F 86% 30.16 in 4.0 mi South 3.5 mph - N/A   Clear
1:53 AM 34.0 °F - 32.0 °F 92% 30.16 in 4.0 mi Calm Calm - N/A   Clear
2:53 AM 33.1 °F - 30.9 °F 92% 30.17 in 3.0 mi Calm Calm - N/A   Clear
3:27 AM 32.0 °F - 30.2 °F 93% 30.15 in 2.5 mi Calm Calm - N/A   Clear
3:53 AM 30.9 °F - 30.0 °F 96% 30.18 in 2.0 mi Calm Calm - N/A   Clear
4:53 AM 34.0 °F 28.8 °F 32.0 °F 92% 30.17 in 2.5 mi South 5.8 mph - N/A   Clear
5:53 AM 34.0 °F 28.8 °F 32.0 °F 92% 30.17 in 2.5 mi South 5.8 mph - N/A   Clear
6:53 AM 34.0 °F 28.8 °F 32.0 °F 92% 30.18 in 2.0 mi South 5.8 mph - N/A   Clear
7:53 AM 35.1 °F 31.0 °F 33.1 °F 92% 30.19 in 2.0 mi SSE 4.6 mph - N/A   Clear
8:53 AM 37.9 °F 33.5 °F 35.1 °F 89% 30.19 in 1.8 mi South 5.8 mph - N/A   Clear
9:19 AM 39.2 °F 35.0 °F 35.6 °F 87% 30.16 in 2.0 mi South 5.8 mph - N/A   Clear
9:26 AM 39.2 °F 35.0 °F 35.6 °F 87% 30.15 in 1.8 mi South 5.8 mph - N/A   Clear
9:53 AM 42.1 °F 36.6 °F 37.0 °F 82% 30.18 in 2.5 mi South 9.2 mph - N/A   Haze
10:31 AM 46.4 °F 42.4 °F 37.4 °F 71% 30.14 in 3.0 mi South 8.1 mph - N/A   Haze
10:53 AM 46.9 °F - 37.9 °F 71% 30.17 in 3.0 mi SSE 9.2 mph - N/A   Haze
11:53 AM 52.0 °F - 39.0 °F 61% 30.14 in 5.0 mi South 11.5 mph - N/A   Haze
12:53 PM 55.0 °F - 39.0 °F 55% 30.11 in 6.0 mi South 11.5 mph - N/A   Haze
1:53 PM 55.9 °F - 39.0 °F 53% 30.09 in 6.0 mi South 12.7 mph 18.4 mph N/A   Haze
2:53 PM 57.0 °F - 37.9 °F 49% 30.08 in 7.0 mi South 11.5 mph - N/A   Overcast
3:53 PM 55.9 °F - 37.9 °F 51% 30.08 in 7.0 mi SSE 5.8 mph - N/A   Overcast
4:53 PM 55.0 °F - 39.0 °F 55% 30.06 in 6.0 mi SSE 5.8 mph - N/A   Haze
5:53 PM 55.0 °F - 39.0 °F 55% 30.06 in 7.0 mi SE 5.8 mph - N/A   Overcast
6:53 PM 54.0 °F - 39.9 °F 59% 30.06 in 7.0 mi SE 3.5 mph - 0.00 in   Overcast
7:53 PM 54.0 °F - 41.0 °F 62% 30.07 in 7.0 mi Calm Calm - 0.00 in   Overcast
8:53 PM 53.1 °F - 42.1 °F 66% 30.07 in 7.0 mi SE 3.5 mph - N/A   Overcast
9:53 PM 53.1 °F - 42.1 °F 66% 30.07 in 8.0 mi SE 3.5 mph - N/A   Overcast
10:53 PM 53.1 °F - 42.1 °F 66% 30.09 in 8.0 mi East 4.6 mph - N/A   Overcast
11:53 PM 53.1 °F - 43.0 °F 69% 30.08 in 8.0 mi East 3.5 mph - N/A   Overcast